FW7007 Weather Reports


time (UTC)temp
C
wind
direction
speed
KPH
gust
KPH
rain 1hr
cm
rain 24hr
cm
rain mn
cm
humidity
%
barometer
mb
20260505181240 23 94 1.6 3.2 0.00 0.00 0.00 52 1015.1
20260505180737 23 40 1.6 4.8 0.00 0.00 0.00 51 1015.4
20260505180233 23 96 0.0 4.8 0.00 0.00 0.00 56 1015.5
20260505175730 23 94 1.6 3.2 0.00 0.00 0.00 52 1015.6
20260505175226 22 86 1.6 3.2 0.00 0.00 0.00 53 1015.5
20260505174723 22 97 3.2 4.8 0.00 0.00 0.00 53 1015.5
20260505174220 22 86 1.6 8.0 0.00 0.00 0.00 53 1015.4
20260505173716 22 96 1.6 3.2 0.00 0.00 0.00 52 1015.9
20260505173213 22 97 0.0 9.7 0.00 0.00 0.00 52 1016.0
20260505172710 23 111 1.6 4.8 0.00 0.00 0.00 54 1016.1
20260505172207 23 144 3.2 3.2 0.00 0.00 0.00 53 1016.1
20260505171706 22 125 1.6 9.7 0.00 0.00 0.00 55 1016.2
20260505171204 23 173 4.8 8.0 0.00 0.00 0.00 53 1016.2
20260505170701 22 69 1.6 3.2 0.00 0.00 0.00 56 1016.2
20260505170158 22 111 3.2 3.2 0.00 0.00 0.00 58 1016.2
20260505165658 22 79 3.2 3.2 0.00 0.00 0.00 57 1016.3
20260505165154 22 111 1.6 1.6 0.00 0.00 0.00 58 1016.2
20260505164649 22 110 0.0 1.6 0.00 0.00 0.00 62 1016.4
20260505164147 22 106 1.6 3.2 0.00 0.00 0.00 56 1016.2
20260505163645 22 131 1.6 3.2 0.00 0.00 0.00 57 1016.5
20260505163143 22 106 0.0 3.2 0.00 0.00 0.00 57 1016.7
20260505162640 22 86 3.2 3.2 0.00 0.00 0.00 56 1016.5
20260505162138 22 88 3.2 4.8 0.00 0.00 0.00 58 1016.5
20260505161635 22 73 0.0 3.2 0.00 0.00 0.00 58 1016.5
20260505161132 22 79 1.6 3.2 0.00 0.00 0.00 58 1016.4
20260505160630 22 49 4.8 4.8 0.00 0.00 0.00 57 1016.6
20260505160127 22 35 3.2 3.2 0.00 0.00 0.00 56 1016.5
20260505153107 21 122 1.6 4.8 0.00 0.00 0.00 60 1016.3
20260505152603 21 99 1.6 1.6 0.00 0.00 0.00 65 1016.2
20260505152058 20 133 1.6 4.8 0.00 0.00 0.00 64 1016.5
20260505151554 20 104 0.0 1.6 0.00 0.00 0.00 63 1016.3
20260505151052 20 105 1.6 3.2 0.00 0.00 0.00 65 1016.3
20260505150548 20 105 1.6 3.2 0.00 0.00 0.00 64 1016.3
20260505140513 18 93 0.0 0.0 0.00 0.00 0.00 67 1016.4
20260505124926 14 98 0.0 0.0 0.00 0.00 0.00 80 1016.4
20260505124423 13 98 0.0 0.0 0.00 0.00 0.00 81 1016.2
20260505123919 13 98 0.0 0.0 0.00 0.00 0.00 84 1016.4
20260505123416 13 98 0.0 0.0 0.00 0.00 0.00 86 1016.2
20260505122912 12 98 0.0 0.0 0.00 0.00 0.00 86 1016.2
20260505122409 12 98 0.0 0.0 0.00 0.00 0.00 87 1016.3
20260505121906 12 98 0.0 0.0 0.00 0.00 0.00 87 1016.4
20260505121403 12 98 0.0 0.0 0.00 0.00 0.00 88 1016.1
20260505120859 12 98 0.0 0.0 0.00 0.00 0.00 88 1016.2
20260505120355 12 98 0.0 0.0 0.00 0.00 0.00 88 1016.0
20260505115854 11 98 0.0 0.0 0.00 0.00 0.00 88 1016.1
20260505115351 11 98 0.0 0.0 0.00 0.00 0.00 88 1015.9
20260505114849 11 98 0.0 0.0 0.00 0.00 0.00 88 1016.1
20260505114346 11 98 0.0 0.0 0.00 0.00 0.00 88 1015.8
20260505113842 11 97 0.0 0.0 0.00 0.00 0.00 88 1016.0
20260505113338 11 97 0.0 0.0 0.00 0.00 0.00 89 1015.9
20260505112834 11 97 0.0 0.0 0.00 0.00 0.00 88 1015.6
20260505112332 11 97 0.0 0.0 0.00 0.00 0.00 88 1015.5
20260505111827 11 97 0.0 0.0 0.00 0.00 0.00 88 1015.4
20260505111323 11 97 0.0 0.0 0.00 0.00 0.00 87 1015.4
20260505110819 11 97 0.0 0.0 0.00 0.00 0.00 87 1015.2
20260505110317 11 97 0.0 0.0 0.00 0.00 0.00 87 1015.2
20260505101751 11 98 0.0 0.0 0.00 0.00 0.00 85 1015.1
20260505101247 11 98 0.0 0.0 0.00 0.00 0.00 85 1015.3
20260505100743 11 98 0.0 0.0 0.00 0.00 0.00 84 1015.4
20260505100240 11 98 0.0 0.0 0.00 0.00 0.00 84 1015.2
20260505095736 12 98 0.0 0.0 0.00 0.00 0.00 85 1015.2
20260505095234 12 97 0.0 0.0 0.00 0.00 0.00 84 1015.3
20260505094729 12 97 0.0 0.0 0.00 0.00 0.00 84 1015.3
20260505094226 12 97 0.0 0.0 0.00 0.00 0.00 82 1014.9
20260505093722 12 97 0.0 0.0 0.00 0.00 0.00 81 1014.8
20260505093220 12 97 0.0 0.0 0.00 0.00 0.00 81 1015.0
20260505092716 12 97 0.0 0.0 0.00 0.00 0.00 81 1015.0
20260505092215 12 97 0.0 0.0 0.00 0.00 0.00 81 1015.2
20260505091712 12 97 0.0 0.0 0.00 0.00 0.00 81 1014.9
20260505091210 12 97 0.0 0.0 0.00 0.00 0.00 81 1015.1
20260505090707 12 97 0.0 0.0 0.00 0.00 0.00 82 1015.1
20260505090205 12 97 0.0 0.0 0.00 0.00 0.00 82 1015.1
20260505085702 12 97 0.0 0.0 0.00 0.00 0.00 81 1015.0
20260505085200 12 97 0.0 0.0 0.00 0.00 0.00 81 1015.1
20260505084657 12 97 0.0 0.0 0.00 0.00 0.00 81 1014.8
20260505084156 12 97 0.0 0.0 0.00 0.00 0.00 80 1014.8
20260505083653 12 97 0.0 0.0 0.00 0.00 0.00 80 1014.9
20260505083150 12 97 0.0 0.0 0.00 0.00 0.00 80 1014.9
20260505082646 12 97 0.0 0.0 0.00 0.00 0.00 80 1014.8
20260505082143 12 97 0.0 0.0 0.00 0.00 0.00 80 1014.7
20260505081638 12 97 0.0 0.0 0.00 0.00 0.00 80 1014.7
20260505081136 13 97 0.0 0.0 0.00 0.00 0.00 79 1014.6
20260505080633 13 97 0.0 0.0 0.00 0.00 0.00 79 1014.5
20260505080129 13 97 0.0 0.0 0.00 0.00 0.00 78 1014.6
20260505075625 13 97 0.0 0.0 0.00 0.00 0.00 78 1014.7
20260505075122 13 97 0.0 0.0 0.00 0.00 0.00 77 1014.7
20260505074619 13 97 0.0 0.0 0.00 0.00 0.00 77 1014.6
20260505074116 13 97 0.0 0.0 0.00 0.00 0.00 77 1014.5
20260505073614 13 97 0.0 0.0 0.00 0.00 0.00 77 1014.5
20260505073112 13 97 0.0 0.0 0.00 0.00 0.00 77 1014.5
20260505072607 13 97 0.0 0.0 0.00 0.00 0.00 77 1014.7
20260505072104 13 97 0.0 0.0 0.00 0.00 0.00 76 1014.4
20260505071559 13 97 0.0 0.0 0.00 0.00 0.00 76 1014.7
20260505071057 13 97 0.0 0.0 0.00 0.00 0.00 76 1014.7
20260505070554 13 97 0.0 0.0 0.00 0.00 0.00 76 1014.8
20260505070050 14 97 0.0 0.0 0.00 0.00 0.00 75 1014.7
20260505065546 14 97 0.0 0.0 0.00 0.00 0.00 76 1014.5
20260505065043 14 97 0.0 0.0 0.00 0.00 0.00 76 1014.9
20260505064540 14 97 0.0 0.0 0.00 0.00 0.00 76 1014.8
20260505064038 14 97 0.0 0.0 0.00 0.00 0.00 76 1014.7
20260505063535 14 97 0.0 0.0 0.00 0.00 0.00 75 1014.8
20260505063031 14 97 0.0 0.0 0.00 0.00 0.00 75 1014.9
20260505062528 14 97 0.0 0.0 0.00 0.00 0.00 75 1014.8
20260505062025 14 97 0.0 0.0 0.00 0.00 0.00 75 1014.8
20260505061523 14 97 0.0 0.0 0.00 0.00 0.00 75 1014.6
20260505061020 14 97 0.0 0.0 0.00 0.00 0.00 75 1014.8
20260505060518 15 97 0.0 0.0 0.00 0.00 0.00 74 1014.6
20260505060014 15 97 0.0 0.0 0.00 0.00 0.00 74 1014.7
20260505055509 15 97 0.0 0.0 0.00 0.00 0.00 73 1014.4
20260505055006 15 97 0.0 0.0 0.00 0.00 0.00 73 1014.6
20260505054504 15 97 0.0 0.0 0.00 0.00 0.00 73 1014.8
20260505054002 15 97 0.0 0.0 0.00 0.00 0.00 72 1014.8
20260505053459 15 97 0.0 0.0 0.00 0.00 0.00 72 1014.6
20260505052955 15 97 0.0 0.0 0.00 0.00 0.00 71 1014.8
20260505052452 15 97 0.0 0.0 0.00 0.00 0.00 71 1014.9
20260505051949 15 97 0.0 0.0 0.00 0.00 0.00 71 1014.7
20260505051446 15 97 0.0 0.0 0.00 0.00 0.00 70 1014.8
20260505050945 15 97 0.0 0.0 0.00 0.00 0.00 70 1014.5
20260505050442 15 97 0.0 0.0 0.00 0.00 0.00 69 1014.3
20260505041410 16 97 0.0 0.0 0.00 0.00 0.00 67 1014.4
20260505040907 16 97 0.0 0.0 0.00 0.00 0.00 67 1014.2
20260505040405 16 97 0.0 0.0 0.00 0.00 0.00 67 1014.3
20260505035901 16 97 0.0 0.0 0.00 0.00 0.00 66 1014.3
20260505035357 16 97 0.0 0.0 0.00 0.00 0.00 66 1014.4
20260505034855 16 97 0.0 0.0 0.00 0.00 0.00 65 1014.3
20260505034351 16 97 0.0 0.0 0.00 0.00 0.00 65 1014.5
20260505033848 16 97 0.0 0.0 0.00 0.00 0.00 66 1014.4
20260505033345 16 97 0.0 0.0 0.00 0.00 0.00 65 1014.4
20260505032843 16 97 0.0 0.0 0.00 0.00 0.00 65 1014.4
20260505032340 16 97 0.0 0.0 0.00 0.00 0.00 65 1014.4
20260505031837 16 97 0.0 0.0 0.00 0.00 0.00 65 1014.5
20260505031333 16 97 0.0 0.0 0.00 0.00 0.00 65 1014.4
20260505030831 16 97 0.0 0.0 0.00 0.00 0.00 64 1014.3
20260505030326 17 96 0.0 0.0 0.00 0.00 0.00 64 1014.6
20260505025822 17 97 0.0 0.0 0.00 0.00 0.00 64 1014.5
20260505025320 17 97 0.0 0.0 0.00 0.00 0.00 63 1014.5
20260505024818 17 97 0.0 0.0 0.00 0.00 0.00 62 1014.4
20260505024315 17 97 0.0 0.0 0.00 0.00 0.00 62 1014.6
20260505023813 17 96 0.0 0.0 0.00 0.00 0.00 62 1014.8
20260505023309 17 96 0.0 0.0 0.00 0.00 0.00 62 1014.4
20260505022807 18 97 0.0 0.0 0.00 0.00 0.00 62 1014.6
20260505022304 18 96 0.0 0.0 0.00 0.00 0.00 61 1014.6
20260505021800 18 97 0.0 0.0 0.00 0.00 0.00 61 1014.6
20260505021257 18 97 0.0 1.6 0.00 0.00 0.00 61 1014.5
20260505020753 18 96 0.0 1.6 0.00 0.00 0.00 60 1014.8
20260505020248 18 102 0.0 0.0 0.00 0.00 0.00 61 1014.6
20260505015746 18 101 0.0 0.0 0.00 0.00 0.00 61 1014.6
20260505015243 18 96 0.0 1.6 0.00 0.00 0.00 62 1014.2
20260505014740 18 96 0.0 0.0 0.00 0.00 0.00 62 1014.3
20260505014237 18 103 0.0 0.0 0.00 0.00 0.00 62 1014.3
20260505013734 18 93 0.0 3.2 0.00 0.00 0.00 63 1014.4
20260505013231 18 93 0.0 1.6 0.00 0.00 0.00 62 1014.3
20260505012729 18 101 0.0 0.0 0.00 0.00 0.00 63 1014.2
20260505012226 18 101 0.0 0.0 0.00 0.00 0.00 64 1014.3
20260505011721 19 100 0.0 0.0 0.00 0.00 0.00 64 1014.3
20260505011219 19 100 0.0 0.0 0.00 0.00 0.00 64 1014.0
20260505010714 19 100 0.0 0.0 0.00 0.00 0.00 63 1014.0
20260505010211 20 101 0.0 0.0 0.00 0.00 0.00 62 1014.1
20260505005707 20 99 0.0 0.0 0.00 0.00 0.00 62 1014.0
20260505005205 20 93 0.0 1.6 0.00 0.00 0.00 62 1014.1
20260505004702 20 97 0.0 1.6 0.00 0.00 0.00 62 1014.0
20260505004158 20 99 0.0 0.0 0.00 0.00 0.00 62 1013.9
20260505003656 20 98 0.0 0.0 0.00 0.00 0.00 61 1013.8
20260505003153 20 99 0.0 0.0 0.00 0.00 0.00 60 1013.6
20260505002649 20 111 1.6 1.6 0.00 0.00 0.00 60 1013.8
20260505002148 20 128 1.6 3.2 0.00 0.00 0.00 60 1013.9
20260505001644 21 98 0.0 0.0 0.00 0.00 0.00 59 1013.9
20260505001142 21 104 0.0 1.6 0.00 0.00 0.00 60 1013.9
20260505000638 21 106 0.0 1.6 0.00 0.00 0.00 59 1013.6
20260505000137 21 97 0.0 1.6 0.00 0.00 0.00 58 1013.9
20260504235632 21 99 0.0 1.6 0.00 0.00 0.00 58 1013.9
20260504235129 21 102 1.6 3.2 0.00 0.00 0.00 57 1013.9
20260504234626 22 107 1.6 1.6 0.00 0.00 0.00 58 1013.6
20260504234124 22 116 1.6 1.6 0.00 0.00 0.00 57 1013.7
20260504233619 22 57 1.6 4.8 0.00 0.00 0.00 55 1013.7
20260504233115 22 101 1.6 1.6 0.00 0.00 0.00 58 1013.8
20260504232613 22 102 0.0 1.6 0.00 0.00 0.00 56 1013.5
20260504232110 22 101 0.0 1.6 0.00 0.00 0.00 57 1013.8
20260504231606 22 90 1.6 3.2 0.00 0.00 0.00 54 1013.6
20260504231102 22 129 1.6 3.2 0.00 0.00 0.00 54 1013.6
20260504230558 22 67 1.6 1.6 0.00 0.00 0.00 53 1013.7
20260504230053 23 72 1.6 3.2 0.00 0.00 0.00 52 1013.6
20260504225549 23 58 3.2 3.2 0.00 0.00 0.00 55 1013.4
20260504225046 23 82 1.6 3.2 0.00 0.00 0.00 56 1013.6
20260504224543 23 75 0.0 1.6 0.00 0.00 0.00 53 1013.3
20260504224040 23 82 1.6 3.2 0.00 0.00 0.00 54 1013.3
20260504223537 23 90 0.0 3.2 0.00 0.00 0.00 56 1013.4
20260504223032 23 98 0.0 0.0 0.00 0.00 0.00 55 1013.3
20260504222530 23 99 0.0 1.6 0.00 0.00 0.00 53 1013.4
20260504222027 23 81 1.6 1.6 0.00 0.00 0.00 51 1013.7
20260504221524 23 92 0.0 1.6 0.00 0.00 0.00 52 1013.6
20260504221021 23 111 0.0 3.2 0.00 0.00 0.00 55 1013.7
20260504220518 23 101 0.0 3.2 0.00 0.00 0.00 52 1013.7
20260504220015 24 111 1.6 3.2 0.00 0.00 0.00 51 1013.6
20260504215511 24 102 0.0 1.6 0.00 0.00 0.00 50 1013.7
20260504215009 25 94 1.6 1.6 0.00 0.00 0.00 52 1013.8
20260504214504 25 93 1.6 1.6 0.00 0.00 0.00 48 1013.7
20260504214001 25 78 1.6 3.2 0.00 0.00 0.00 50 1013.7
20260504213456 25 100 3.2 3.2 0.00 0.00 0.00 46 1013.8
20260504212955 25 84 1.6 3.2 0.00 0.00 0.00 47 1013.7
20260504212450 25 104 1.6 1.6 0.00 0.00 0.00 49 1013.6
20260504211948 25 86 3.2 3.2 0.00 0.00 0.00 47 1013.8
20260504211444 25 95 0.0 3.2 0.00 0.00 0.00 47 1014.1
20260504210942 25 115 1.6 1.6 0.00 0.00 0.00 48 1013.8
20260504210438 25 85 0.0 8.0 0.00 0.00 0.00 48 1013.8
20260504205935 25 96 0.0 1.6 0.00 0.00 0.00 48 1013.8
20260504205433 25 107 0.0 3.2 0.00 0.00 0.00 49 1013.9
20260504204931 25 107 1.6 3.2 0.00 0.00 0.00 46 1014.0
20260504204429 25 91 1.6 8.0 0.00 0.00 0.00 47 1014.0
20260504203928 25 87 1.6 3.2 0.00 0.00 0.00 46 1014.0
20260504203425 25 87 0.0 3.2 0.00 0.00 0.00 48 1014.0
20260504202921 25 64 3.2 3.2 0.00 0.00 0.00 47 1014.3
20260504202418 25 88 1.6 3.2 0.00 0.00 0.00 45 1014.3
20260504201914 25 109 1.6 3.2 0.00 0.00 0.00 47 1014.3
20260504201412 25 103 1.6 1.6 0.00 0.00 0.00 47 1014.3
20260504200909 25 69 0.0 3.2 0.00 0.00 0.00 50 1014.3
20260504200406 25 101 0.0 3.2 0.00 0.00 0.00 49 1014.4
20260504195903 25 90 1.6 9.7 0.00 0.00 0.00 51 1014.5
20260504195358 25 90 0.0 1.6 0.00 0.00 0.00 50 1014.6
20260504194855 25 84 1.6 1.6 0.00 0.00 0.00 50 1014.6
20260504194351 25 108 1.6 3.2 0.00 0.00 0.00 51 1014.7
20260504193847 25 94 0.0 3.2 0.00 0.00 0.00 50 1014.7
20260504193344 25 88 1.6 4.8 0.00 0.00 0.00 50 1014.8
20260504192843 24 156 1.6 3.2 0.00 0.00 0.00 53 1015.0
20260504192341 24 101 0.0 3.2 0.00 0.00 0.00 51 1015.0
20260504191839 25 111 3.2 4.8 0.00 0.00 0.00 50 1015.1
20260504191337 25 106 1.6 3.2 0.00 0.00 0.00 52 1015.3
20260504190832 24 99 1.6 3.2 0.00 0.00 0.00 52 1015.3
20260504190328 23 113 1.6 3.2 0.00 0.00 0.00 52 1015.5
20260504185825 23 146 1.6 3.2 0.00 0.00 0.00 52 1015.4
20260504185322 23 98 1.6 3.2 0.00 0.00 0.00 52 1015.6
20260504184818 23 108 0.0 1.6 0.00 0.00 0.00 54 1015.6
20260504184314 23 94 0.0 3.2 0.00 0.00 0.00 52 1015.5
20260504183809 23 58 3.2 4.8 0.00 0.00 0.00 52 1015.8
20260504183307 23 120 3.2 3.2 0.00 0.00 0.00 52 1015.9
20260504182804 23 76 1.6 4.8 0.00 0.00 0.00 52 1016.1
20260504182301 23 79 1.6 3.2 0.00 0.00 0.00 52 1016.0
20260504181759 24 66 1.6 3.2 0.00 0.00 0.00 52 1016.1